FENGYUN 1C DEB, 30325

Orbit data source: Space-Track

FENGYUN 1C DEB, 30325 is space debris in SSO originally from a launch on Mon, 10 May 1999 UTC launched from the Taiyaun Space Center, China (TSC). Fengyun 1C debris stems from the Chinese weather satellite Fengyun-1C, which was intentionally destroyed by a Chinese anti-satellite missile in 2007. This event dramatically increased the amount of space debris, with thousands of trackable fragments posing hazards to satellites and human spaceflight. The Fengyun 1C debris cloud has become a focal point in discussions about space sustainability and the need for international regulations to prevent the creation of new debris.

Loading next visibility...
FENGYUN 1C DEB details
Identifier
30325, 1999-025AAL
Orbit
SSO
Last TLE update11 hours ago
Origin
Flag of CNCASC (CN / PRC)
ManufacturerUnknown
MissionSpacecraft
Bus & MotorUnknown
MassUnknown
Launch date (UTC)
1999-05-10 (26 years ago)
Launch vehicleUnknown
Launch site
Taiyaun Space Center, China (TSC)
Object type
Payload
Rocket body
Debris
Shape & HBRUnknown
Radar Cross SectionSmall (<0.1 m²)

Expand to show TLE details & history

TLE from 11 hours ago
0 FENGYUN 1C DEB
1 30325U 99025AAL 25047.03332883  .00000146  00000-0  10878-3 0  9994
2 30325  98.7586  75.1903 0016568  25.1712 335.0262 14.08967799927949
Epoch: 2025-02-16T00:47Z
Definitive object data (Epoch: 2025-02-16T00:47:59.61Z)
Latitude-0.00008°
Longitude-83.08026°
Altitude854.93 km
Speed7.431 km/s
True Right ascension05h 00m 45s
True Declination0° 00' 00"
Sunlit
Object was in daylight at TLE epoch
Visualization TLE readout
Latitude-31.40043°
Longitude92.00631°
Altitude886.532 km
Speed7.402 km/s
Apparent Right ascension20h 04m 21s
Apparent Declination-69° 05' 54"
Sunlit
Object is in daylight
Visualization observer readout
Local Sidereal Time14:48:03
Azimuth155.251° SSE
Elevation-33.201°
Doppler factor1
Orbital elements
Apogee altitude872.074 km
Perigee altitude848.089 km
Semi-major axis7,238.219 km
Eccentricity0.0016568
Inclination98.7586°
RAAN75.1903°
Arg. of periapsis25.1712°
True anomaly334.94589°
Mean anomaly335.0262°
Eccentric anomaly334.98606°
Mean motion3.52448 °/min
BSTAR0.00010878
Orbital period102.14 mins
Loading maneuver chart data...
Loading historical data...
Loading historical data...
Loading historical data...
Loading historical data...
Loading historical data...
Loading historical data...
Loading historical data...

FENGYUN 1C DEB Visibility forecast

Observer location: undefined°, undefined

Span
Click to sort rows by Start time (UTC) header in descending order
Start Az.
Max El. time (UTC)
Max El. Az.
Max El.
End time (UTC)
End Az.
6 mins2025-02-16 13:20:35.690Z53.135° ENE2025-02-16 13:23:35.690Z86.75° E16.355°2025-02-16 13:26:35.690Z123.255° SE
9 mins2025-02-16 15:01:35.690Z1.704° NNE2025-02-16 15:05:35.690Z271.587° WNW41.028°2025-02-16 15:10:35.690Z208.966° SW
8 mins2025-02-17 00:48:35.690Z117.409° SE2025-02-17 00:51:35.690Z75.07° E26.611°2025-02-17 00:56:35.690Z7.975° NNE
8 mins2025-02-17 02:29:35.690Z209.225° SW2025-02-17 02:32:35.690Z257.18° W29.569°2025-02-17 02:37:35.690Z326.85° NNW
|